Location: Izdebno
(52.6670°N, 16.2170°E)
Time: 04:46:44
(UTC+02:00)

Transit 2A - Pass Details

Date: 02 March 2024
Orbit: 596 x 956 km, 66.7° (Epoch: 21 April)

Event Time Altitude Azimuth Distance (km) Brightness Sun altitude
Rises 00:49:27 0° 320° (NW) 2,936 - -43.6°
Reaches altitude 10° 00:51:55 10° 332° (NNW) 2,066 - -43.5°
Maximum altitude 00:56:00 29° 33° (NNE) 1,252 - -43.4°
Drops below altitude 10° 01:00:25 10° 94° (E) 2,240 - -43.2°
Sets 01:03:12 0° 105° (ESE) 3,229 - -43.0°
